Location: Baili�vre
(50.0696°N, 4.2409°E)
Time: 21:55:07
(UTC+00:00)

Cosmos 1934 Rocket - Pass Details

Date: 08 August 2020
Orbit: 937 x 1000 km, 83.0° (Epoch: 22 September)

Event Time Altitude Azimuth Distance (km) Brightness Sun altitude
Exits shadow 21:16:21 - 198° (SSW) 3,543 6.6 -16.1°
Reaches altitude 10° 21:18:28 10° 201° (SSW) 2,761 6.1 -16.3°
Maximum altitude 21:24:46 65° 283° (WNW) 1,098 4.4 -16.9°
Drops below altitude 10° 21:31:08 10° 5° (N) 2,780 7.1 -17.5°
Sets 21:33:43 0° 9° (N) 3,729 7.8 -17.7°
